This is the latest recevied weather packets stored in our database for station/object KM4KMS. If no packets are shown the sender has not sent any weather packets the latest 10 day(s).
| Time | Temp. | Humidity | Pressure | Rain* | Wind** | Luminosity | Snow |
|---|---|---|---|---|---|---|---|
| 1777914316 | 21.67° C | 63% | 1008.9 hPa | 0 mm | - | 700 W/m² | - |
| 1777914015 | 22.22° C | 65% | 1009 hPa | 0 mm | - | 659 W/m² | - |
| 1777913710 | 21.67° C | 62% | 1009 hPa | 0 mm | - | 656 W/m² | - |
| 1777913407 | 21.67° C | 61% | 1008.9 hPa | 0 mm | - | 696 W/m² | - |
| 1777913104 | 22.22° C | 60% | 1009.2 hPa | 0 mm | - | 713 W/m² | - |
| 1777912800 | 21.67° C | 64% | 1009.2 hPa | 0 mm | - | 690 W/m² | - |
| 1777912495 | 21.11° C | 66% | 1009.3 hPa | 0 mm | - | 635 W/m² | - |
| 1777912193 | 21.11° C | 61% | 1009.3 hPa | 0 mm | - | 633 W/m² | - |
| 1777911889 | 20.56° C | 65% | 1009.2 hPa | 0 mm | - | 853 W/m² | - |
| 1777911585 | 20° C | 64% | 1009.4 hPa | 0 mm | - | 349 W/m² | - |
| 1777911281 | 20° C | 65% | 1009.4 hPa | 0 mm | - | 563 W/m² | - |
| 1777910979 | 20° C | 66% | 1009.3 hPa | 0 mm | - | 355 W/m² | - |
| 1777910677 | 19.44° C | 65% | 1009.4 hPa | 0 mm | - | 449 W/m² | - |
| 1777910373 | 19.44° C | 68% | 1009.4 hPa | 0 mm | - | 797 W/m² | - |
| 1777910070 | 20° C | 69% | 1009.5 hPa | 0 mm | - | 804 W/m² | - |
| 1777909767 | 18.89° C | 70% | 1009.5 hPa | 0 mm | - | 802 W/m² | - |
| 1777909464 | 18.33° C | 72% | 1009.4 hPa | 0 mm | - | 771 W/m² | - |
| 1777909162 | 18.33° C | 71% | 1009.6 hPa | 0 mm | - | 756 W/m² | - |
| 1777908860 | 18.33° C | 70% | 1009.8 hPa | 0 mm | - | 756 W/m² | - |
| 1777908556 | 17.78° C | 72% | 1009.7 hPa | 0 mm | - | 281 W/m² | - |
| 1777908253 | 17.78° C | 73% | 1009.8 hPa | 0 mm | - | 286 W/m² | - |
| 1777907950 | 16.67° C | 75% | 1009.6 hPa | 0 mm | - | 397 W/m² | - |
| 1777907644 | 16.67° C | 77% | 1009.8 hPa | 0 mm | - | 274 W/m² | - |
| 1777907341 | 16.67° C | 77% | 1009.6 hPa | 0 mm | - | 286 W/m² | - |
| 1777907037 | 16.11° C | 78% | 1009.7 hPa | 0 mm | - | 634 W/m² | - |
* Rain latest hour (hover to see other rain measurements)
** Current wind speed in m/s (hover to see current wind gust speed)